Location: Newark
(34.3481°N, 134.0494°E)
Time: 15:49:32
(UTC+00:00)

Courier 1B Rocket - Visible Passes

Search period start: 27 January 2020 00:00
Search period end: 06 February 2020 00:00
Orbit: 920 x 1202 km, 28.2° (Epoch: 26 January)

Date Brightness Start Highest point End Pass type
(mag) Time Alt. Az. Time Alt. Az. Time Alt. Az.
01 Feb 7.6 21:36:45 10° SSW 21:42:22 22° SSE 21:47:58 10° ESE visible
02 Feb 7.7 20:37:12 10° S 20:41:22 15° SSE 20:45:34 10° ESE visible
03 Feb 7.2 21:26:50 10° SSW 21:33:16 29° SSE 21:39:44 10° E visible
04 Feb 7.4 20:26:41 10° SSW 20:32:14 22° SSE 20:37:53 10° ESE visible
05 Feb 7.5 19:27:13 10° S 19:31:16 15° SSE 19:35:24 10° ESE visible
05 Feb 6.7 21:17:19 10° SW 21:24:12 36° SSE 21:31:13 10° E visible
